Regional Weather Roundup
Issued by NWS

Home | Current Version | Previous Version | Text Only | Print | Product List | Glossary On
Versions: 1 2 3 4 5 6 7 8 9 10 11 12 13 14 15 16 17 18 19 20 21 22 23 24 25 26 27 28 29 30 31 32 33 34 35 36 37 38 39 40 41 42 43 44 45 46 47 48 49 50
000
ASUS43 KMKX 020414
RWRWI

WISCONSIN REGIONAL WEATHER ROUNDUP
NATIONAL WEATHER SERVICE MILWAUKEE/SULLIVAN WI
1100 PM CDT MON JUN 01 2015

NOTE: "FAIR" INDICATES FEW OR NO CLOUDS BELOW 12,000 FEET WITH NO
SIGNIFICANT WEATHER AND/OR OBSTRUCTIONS TO VISIBILITY.

WIZ001-002-006>008-014>016-023>028-020500-
NORTHWEST WISCONSIN

CITY           SKY/WX    TMP DP  RH WIND       PRES   REMARKS
SUPERIOR ARPT  MOCLDY    42  34  74 E5        30.16S
ASHLAND        NOT AVBL
HAYWARD        CLEAR     57  41  55 SE7       30.15S
SIREN          CLEAR     51  44  76 SE3       30.13F
CUMBERLAND     CLEAR     54  43  66 SE3       30.14F
RICE LAKE      CLEAR     56  45  64 SE6       30.16F
CHETEK         CLEAR     55  45  68 E5        30.16S
LADYSMITH      CLEAR     55  40  56 SE6       30.18F
EAU CLAIRE     CLEAR     57  37  47 S6        30.15F
MENOMONIE      CLEAR     56  44  63 E5        30.15F
NEW RICHMOND   CLEAR     55  43  64 SE5       30.14S
OSCEOLA        CLEAR     58  42  56 SE6       30.15F
$$

WIZ003>005-009-010-017-018-020500-
NORTH CENTRAL WISCONSIN

CITY           SKY/WX    TMP DP  RH WIND       PRES   REMARKS
MANITOWISH WTR CLEAR     51  37  57 S5        30.19S
ARBOR VITAE    CLEAR     53  37  53 S5        30.20S
WOODRUFF       CLEAR     53  37  53 S5        30.20S
RHINELANDER    CLEAR     51  36  56 SE6       30.22S
EAGLE RIVER    CLEAR     50  33  51 S5        30.20F
LAND O LAKES   CLEAR     50  35  57 S3        30.21S
PHILLIPS       CLEAR     49  41  75 E3        30.17F
TOMAHAWK       CLEAR     47  37  67 CALM      30.21S
MEDFORD        CLEAR     51  38  61 SE5       30.19F
MERRILL        CLEAR     49  40  72 SE3       30.22S
$$

WIZ029-030-035-036-043>047-020500-
CENTRAL WISCONSIN

CITY           SKY/WX    TMP DP  RH WIND       PRES   REMARKS
WAUSAU         CLEAR     49  40  71 E6        30.20S
MOSINEE        CLEAR     48  41  76 E5        30.22F
MARSHFIELD     CLEAR     52  36  54 SE5       30.19F
STEVENS POINT  CLEAR     45  40  81 CALM      30.22S
WAUPACA        CLEAR     50  43  79 CALM      30.22F
WAUTOMA        CLEAR     47  44  89 CALM      30.22F
WISC RAPIDS    CLEAR     51  34  52 SE7       30.21F
CAMP DOUGLAS   PTCLDY    46  46 100 SE1       30.19S
$$

WIZ011>013-019>022-031-037>040-048>050-020500-
NORTHEAST WISCONSIN

CITY           SKY/WX    TMP DP  RH WIND       PRES   REMARKS
ANTIGO         CLEAR     46  40  79 SE5       30.22F
SHAWANO        CLEAR     48  42  81 CALM      30.22F
OCONTO         CLEAR     40  40 100 CALM      30.22F
STURGEON BAY   CLEAR     45  36  70 CALM      30.25S
GREEN BAY      CLEAR     49  43  80 CALM      30.22F
MANITOWOC      CLEAR     46  40  79 CALM      30.23F
APPLETON       CLEAR     52  39  62 CALM      30.23S
CLINTONVILLE   CLEAR     46  41  81 CALM      30.22F
OSHKOSH        CLEAR     51  40  65 S3        30.22S
$$

WIZ032>034-041-042-053>061-020500-
SOUTHWEST WISCONSIN

CITY           SKY/WX    TMP DP  RH WIND       PRES   REMARKS
LA CROSSE      PTCLDY    57  44  62 E7        30.16F
SPARTA         PTCLDY    48  41  76 E5        30.19F
VIROQUA        PTCLDY    54  38  54 E8        30.19S
BOSCOBEL       CLEAR     48  43  82 CALM      30.19S
PRAIRIE DU CHI PTCLDY    52  44  73 E7        30.17S
PLATTEVILLE    CLEAR     53  38  57 E8        30.19S
$$

WIZ056-057-062-063-064-067-068-020500-
SOUTH CENTRAL WISCONSIN

CITY           SKY/WX    TMP DP  RH WIND       PRES   REMARKS
REEDSBURG      CLEAR     47  39  71 CALM      30.19F
BARABOO/DELLS  CLEAR     46  36  69 SE6       30.20F
LONE ROCK      CLEAR     52  38  58 SE5       30.20S
MINERAL POINT  CLEAR     54  32  43 E8        30.19F
MADISON        PTCLDY    48  31  51 CALM      30.21S
MIDDLETON      CLEAR     47  36  66 CALM      30.22S
WATERTOWN      CLEAR     45  39  79 CALM      30.22S
MONROE         CLEAR     50  36  57 E6        30.20F
JANESVILLE     CLEAR     50  37  62 E6        30.21S
$$

WIZ051-052-058>065-066-070>072-020500-
SOUTHEAST WISCONSIN

CITY           SKY/WX    TMP DP  RH WIND       PRES   REMARKS
MILWAUKEE      CLEAR     48  33  56 CALM      30.23S
WAUKESHA       CLEAR     45  32  61 CALM      30.23F
MILWAUKEE/TIMM CLEAR     46  30  53 CALM      30.23F
RACINE         CLEAR     45  36  70 N3        30.24S
BURLINGTON     CLEAR     40  35  81 CALM      30.22F
KENOSHA        CLEAR     45  36  70 N3        30.23S
FOND DU LAC    CLEAR     48  41  76 S5        30.22S
SHEBOYGAN      CLEAR     42  38  85 CALM      30.23S
WEST BEND      CLEAR     43  37  81 CALM      30.23S
JUNEAU         CLEAR     49  38  66 E6        30.23S
$$

LSZ147-162-020500-
LAKE SUPERIOR

STATION/POSITION TIME  TEMP    WIND        PRES    WAVE
                       AIR SEA DIR/SP/G            HT/PER
                 (UTC) (F)     (DEG/KT/KT) (MB)    (FT/S)
W MID LAKE BUOY  0350   42 37  100/ 10/ 12   N/A     1/ 3
DEVILS ISLAND    0400   41      20/  3/  3   N/A
PORT WING        0300   42      40/ 12/ 14   N/A
SAXON HARBOR     0300   42        CALM       N/A
$$

LMZ867-665-643>646-020500-
LAKE MICHIGAN

STATION/POSITION TIME  TEMP    WIND        PRES    WAVE
                       AIR SEA DIR/SP/G            HT/PER
                 (UTC) (F)     (DEG/KT/KT) (MB)    (FT/S)
CHAMBERS ISLAND  0300   43      CALM  /  1   N/A
N MID LAKE BUOY  0350   41 37   50/  6/  6   N/A     0
NORTHPORT PIER   0300   49     310/  2/  2   N/A
SISTER BAY       0303   46        CALM       N/A
ALGOMA LAKESHORE 0309             CALM       N/A
KEWAUNEE LAKESHO 0300   49      CALM  /  1   N/A
SHEBOYGAN LAKESH 0400   52      10/  6/  7   N/A
PORT WASHINGTON  0300   51     330/  4/  6   N/A
ATWATER BUOY     0300   47     330/  6/  8   N/A
MILWAUKEE LAKESH 0300   50      10/  7/ 10   N/A
S MID LAKE BUOY  0350   42 38   20/  6/  8   N/A     1/ 4
KENOSHA   LAKESH 0400   49      10/  8/ 10   N/A
$$

TC  - TEMPERATURE IN CELSIUS
VSB - VISIBILITY IN STATUTE MILES
WCI - WIND CHILL INDEX
HX  - HEAT INDEX



USA.gov is the U.S. government's official web portal to all federal, state and local government web resources and services.